Regional Weather Roundup
Issued by NWS Northern Indiana

Home | Current Version | Previous Version | Graphics & Text | Print | Product List | Glossary Off
Versions: 1 2 3 4 5 6 7 8 9 10 11 12 13 14 15 16 17 18 19 20 21 22 23 24 25 26 27 28 29 30 31 32 33 34 35 36 37 38 39 40 41 42 43 44 45 46 47 48 49 50

000
ASUS43 KIWX 211110
RWRIWX

KIWX WEATHER ROUNDUP
NATIONAL WEATHER SERVICE NORTHERN INDIANA
700 AM EDT TUE OCT 21 2014

NOTE: "FAIR" INDICATES FEW OR NO CLOUDS BELOW 12,000 FEET WITH NO
SIGNIFICANT WEATHER AND/OR OBSTRUCTIONS TO VISIBILITY.

* THESE STATIONS ARE NOT UNDER NWS QUALITY CONTROL. THEY ALSO MAY NOT
  REPORT WEATHER SUCH AS PRECIPITATION OR FOG.

INZ001>027-211200-
NORTHERN INDIANA

CITY           SKY/WX    TMP DP  RH WIND       PRES   REMARKS
GARY*          CLOUDY    52  45  76 N12G23    30.05R
VALPARAISO     CLOUDY    47  44  90 N6        30.04R
MICHIGAN CITY* CLOUDY    48  41  76 N13G20    30.04R
LAPORTE*       DRIZZLE   49  47  92 N7        30.04R
KNOX*          CLOUDY    47  45  90 N5        30.03R
SOUTH BEND     LGT RAIN  47  43  86 N9        30.03R
ELKHART*       MOCLDY    46  41  81 N6        30.02
GOSHEN         CLOUDY    47  40  76 NW8       30.00R
MONTICELLO*    CLOUDY    48  46  95 NW3       30.02R
LOGANSPORT*    CLOUDY    46  43  87 N6        30.03R
ROCHESTER*     MOCLDY    50  45  81 NW7       30.02R
WARSAW*        MOCLDY    45  43  93 NW7       30.01R
ANGOLA*        CLOUDY    46  43  87 NW7       29.99R
FORT WAYNE     CLOUDY    48  41  76 NW10      30.00R
HUNTINGTON*    MOCLDY    46  42  86 NW5       30.00R
PERU/GRISSOM   CLOUDY    48  48 100 NW8       30.01R
MARION*        CLOUDY    47  43  84 NW6       30.01R

$$
INZ028>050-211200-
CENTRAL INDIANA

CITY           SKY/WX    TMP DP  RH WIND       PRES   REMARKS
LAFAYETTE      CLOUDY    47  45  93 NW7       30.03R
KOKOMO*        CLOUDY    48  43  81 NW6       30.02R
MUNCIE*        CLOUDY    49  44  83 NW8       29.99R
INDIANAPOLIS   CLOUDY    45  43  93 NW5       30.02R

$$
MIZ043>046-050>051-056>058-064>065-071>073-077>080-211200-
SOUTHWEST LOWER MICHIGAN

CITY           SKY/WX    TMP DP  RH WIND       PRES   REMARKS
BATTLE CREEK   CLOUDY    47  41  80 NW10      30.00R
BENTON HARBOR  CLOUDY    48  44  86 VRB6      30.02R
COLDWATER*     CLOUDY    47  45  93 NW6       29.99R
HILLSDALE*     CLOUDY    47  45  95 NW8       29.96R
HOLLAND        CLOUDY    49  42  77 NW5       30.03R
GRAND RAPIDS   LGT RAIN  47  43  86 NW9       30.01R
KALAMAZOO      CLOUDY    46  42  86 NW10      30.01R
STURGIS*       LGT RAIN  45  43  93 NW9       29.99R
THREE RIVERS*  CLOUDY    47  42  83 NW5       30.01R

$$
OHZ001>008-015>018-024>025-211200-
NORTHWEST OHIO

CITY           SKY/WX    TMP DP  RH WIND       PRES   REMARKS
WAUSEON*       CLOUDY    46  46 100 NW5       29.96R
DEFIANCE       CLOUDY    48  43  82 NW14      29.97R
FINDLAY        LGT RAIN  48  45  89 NW9       29.93R
TOLEDO EXPRESS CLOUDY    48  44  86 NW8       29.94R
TOLEDO METCALF CLOUDY    49  43  80 NW10      29.94R
LIMA           CLOUDY    48  43  82 NW10      29.95R

$$
AND FOR LAKE MICHIGAN COASTAL AND OPEN LAKE BUOY OBSERVATIONS

STATION/POSITION TEMP    WIND        PRES    VSBY  WAVE
                 AIR SEA DIR/SP/G                  HT/PER
                 (F)     (DEG/KT/KT) (MB)    (MI)  (FT/S)
CALUMET HARBOR    51     340/ 12/ 20 1016.6R
MICHIGAN CITY     51     340/ 25/ 28   N/A
SAINT JOSEPH      51                 1017.3F
SOUTH LAKE BUOY   49 54  340/ 21/ 25 1017.5R         6/ 7

$$
&&


USA.gov is the U.S. government's official web portal to all federal, state and local government web resources and services.